Location: Unspecified
(0.0000°N, 0.0000°E)
Time: 06:28:35
(UTC+00:00)

Courier 1B - Pass Details

Date: 24 November 2019
Orbit: 963 x 1209 km, 28.3° (Epoch: 11 December)

Event Time Altitude Azimuth Distance (km) Brightness Sun altitude
Rises 09:18:58 0° 324° (NW) 3,687 10.2 48.5°
Reaches altitude 10° 09:22:32 10° 342° (NNW) 2,710 9.6 49.2°
Maximum altitude 09:26:56 19° 25° (NNE) 2,121 9.5 50.2°
Drops below altitude 10° 09:31:18 10° 68° (ENE) 2,683 10.3 51.1°
Sets 09:34:47 0° 86° (E) 3,636 10.9 51.8°
